Location: *
(45.9500°N, 9.0833°E)
Time: 20:29:06
(UTC+00:00)

Tiros 1 - Pass Details

Date: 16 June 2021
Orbit: 630 x 664 km, 48.4° (Epoch: 05 August)

Event Time Altitude Azimuth Distance (km) Brightness Sun altitude
Rises 18:00:31 0° 280° (W) 2,976 12.4 10.7°
Reaches altitude 10° 18:04:17 10° 250° (WSW) 2,067 10.6 10.1°
Maximum altitude 18:06:06 12° 227° (SW) 1,928 10.0 9.8°
Drops below altitude 10° 18:07:56 10° 205° (SSW) 2,067 9.8 9.5°
Sets 18:11:42 0° 175° (S) 2,978 10.3 8.9°
